Hourly Data Report for October 01, 2017

All times are specified in Local Standard Time (LST). Add 1 hour to adjust for Daylight Saving Time where and when it is observed.

TORONTO INTL A
ONTARIO

43°40'36.000" N
79°37'50.000" W
173.40 m
6158731
71624
YYZ

Download Data

Hourly Data (October 2017)
Hourly Data Report for October 1, 2017
Temp Definition
°C
Dew Point Temp Definition
°C
Rel Hum Definition
%
Wind Dir Definition
10's deg

Wind Spd Definition
km/h
Visibility Definition
km
Stn Press Definition
kPa
Hmdx Definition


Wind Chill Definition


Weather Definition


TIME
00:00 Legend Double Dagger 7.2 2.8 73 31 9 24.1 100.88     LegendNANA
01:00 Legend Double Dagger 7.1 2.7 73 34 6 24.1 100.89     Clear
02:00 Legend Double Dagger 6.6 2.3 74 1 8 24.1 100.85     LegendNANA
03:00 Legend Double Dagger 5.6 2.2 79 33 8 24.1 100.85     LegendNANA
04:00 Legend Double Dagger 5.7 1.8 76 32 7 24.1 100.86     Clear
05:00 Legend Double Dagger 5.7 2.0 77 32 7 24.1 100.87     LegendNANA
06:00 Legend Double Dagger 4.1 0.8 79 30 4 24.1 100.85     LegendNANA
07:00 Legend Double Dagger 5.4 1.8 78 32 4 24.1 100.92     Clear
08:00 Legend Double Dagger 9.3 3.3 66 36 3 24.1 100.94     LegendNANA
09:00 Legend Double Dagger 11.6 4.2 60 26 3 24.1 100.94     LegendNANA
10:00 Legend Double Dagger 14.3 4.2 51 16 5 24.1 100.91     Mainly Clear
11:00 Legend Double Dagger 15.8 3.8 44 30 8 24.1 100.84     LegendNANA
12:00 Legend Double Dagger 16.2 6.1 51 14 10 24.1 100.78     LegendNANA
13:00 Legend Double Dagger 16.2 5.5 49 20 11 24.1 100.71     Mainly Clear
14:00 Legend Double Dagger 16.4 5.1 47 14 5 24.1 100.65     LegendNANA
15:00 Legend Double Dagger 16.9 4.5 43 19 4 24.1 100.58     LegendNANA
16:00 Legend Double Dagger 16.5 4.0 43 15 13 24.1 100.52     Mainly Clear
17:00 Legend Double Dagger 15.9 4.9 48 12 9 24.1 100.51     LegendNANA
18:00 Legend Double Dagger 14.5 5.5 55 14 10 24.1 100.51     LegendNANA
19:00 Legend Double Dagger 13.3 6.5 63 14 6 24.1 100.52     Clear
20:00 Legend Double Dagger 13.1 7.5 69 15 5 24.1 100.56     LegendNANA
21:00 Legend Double Dagger 12.9 8.2 73 13 4 24.1 100.56     LegendNANA
22:00 Legend Double Dagger 12.7 8.9 78 14 5 24.1 100.57     Clear
23:00 Legend Double Dagger 11.1 8.4 83 36 3 24.1 100.61     LegendNANA

Notes on Data Quality.

Legend

  • E = Estimated
  • M = Missing
  • NA = Not Available
  • ‡ = Partner data that is not subject to review by the National Climate Archives
Date modified: